sat.trackr.live / text

‹ back to catalog

STARLINK-31553

NORAD 59363 · 2024-060R

PAYLOAD ACTIVE UNKNOWN

§ Identity

Operator
Country
US
Launch date
2024-03-31
Launch site
AFETR
Launch vehicle
Mass (kg)
RCS (m²)

Purposes: comms

External: N2YO · Heavens-Above · Gunter

§ Orbital elements

Epoch: 2026-09-20T14:46:33.900096Z

Period
94.27 min
Inclination
42.9991°
Eccentricity
0.0001115
Mean motion
15.27588676 rev/d
Perigee alt
482.3 km
Apogee alt
483.8 km
Semi-major
6,861.2 km
B*
1.6595e-5
RAAN
232.1349°
Arg perigee
267.0505°
Mean anomaly
93.0219°
Rev number
13,995

§ Raw data

STARLINK-315531 59363U 24060R   26263.61567014  .00000195  00000+0  16595-4 0  99912 59363  42.9991 232.1349 0001115 267.0505  93.0219 15.27588676139955

JSON: /api/v1/satellites/59363 · /tle

For live sub-satellite position, see the globe view (requires WebGL).

§ Visibility from observer

Set your observer location to see the next 7 days of passes ≥ 10°. The values pass through the URL so the page stays shareable.

No JS? Fill the form by hand. The geolocation button needs JavaScript.